EW4049 Weather Reports


Display with metric or nautical units.
time (UTC)temp
F
wind
direction
speed
MPH
gust
MPH
rain 1hr
in
rain 24hr
in
rain mn
in
humidity
%
barometer
mb
20210917170100 49 94 5.0 11.0 0.00 0.00 0.00 70 1034.2
20210917165532 48 124 3.0 9.0 0.00 0.00 0.00 71 1034.3
20210917165027 48 55 4.0 9.0 0.00 0.00 0.00 71 1034.3
20210917164556 48 93 3.0 9.0 0.00 0.00 0.00 71 1034.3
20210917164034 47 57 4.0 9.0 0.00 0.00 0.00 72 1034.3
20210917163603 47 65 4.0 9.0 0.00 0.00 0.00 74 1034.3
20210917163058 46 55 3.0 8.0 0.00 0.00 0.00 75 1034.4
20210917162544 46 155 4.0 8.0 0.00 0.00 0.00 76 1034.4
20210917162037 45 81 3.0 8.0 0.00 0.00 0.00 79 1034.4
20210917161604 44 72 4.0 8.0 0.00 0.00 0.00 79 1034.4
20210917161032 43 70 5.0 10.0 0.00 0.00 0.00 80 1034.4
20210917160527 43 46 6.0 10.0 0.00 0.00 0.00 81 1034.4
20210917160107 43 52 4.0 9.0 0.00 0.00 0.00 82 1034.4
20210917155533 42 56 5.0 9.0 0.00 0.00 0.00 83 1034.4
20210917155022 41 63 5.0 7.0 0.00 0.00 0.00 85 1034.4
20210917154516 41 64 5.0 7.0 0.00 0.00 0.00 86 1034.5
20210917154112 40 46 2.0 8.0 0.00 0.00 0.00 88 1034.5
20210917153558 39 53 4.0 8.0 0.00 0.00 0.00 88 1034.5
20210917153051 39 48 3.0 7.0 0.00 0.00 0.00 88 1034.4
20210917152540 39 44 2.0 6.0 0.00 0.00 0.00 88 1034.4
20210917152017 39 72 3.0 6.0 0.00 0.00 0.00 89 1034.3
20210917151545 39 62 2.0 5.0 0.00 0.00 0.00 89 1034.4
20210917151038 38 101 1.0 6.0 0.00 0.00 0.00 89 1034.4
20210917150604 38 92 4.0 7.0 0.00 0.00 0.00 90 1034.4
20210917150042 38 81 3.0 7.0 0.00 0.00 0.00 90 1034.5
20210917145605 38 63 3.0 6.0 0.00 0.00 0.00 90 1034.4
20210917145054 38 84 2.0 6.0 0.00 0.00 0.00 90 1034.5
20210917144549 37 62 2.0 5.0 0.00 0.00 0.00 90 1034.5
20210917144015 38 221 0.0 2.0 0.00 0.00 0.00 91 1034.4
20210917143605 37 234 1.0 2.0 0.00 0.00 0.00 91 1034.5
20210917143024 37 60 1.0 2.0 0.00 0.00 0.00 91 1034.4
20210917142550 37 250 0.0 3.0 0.00 0.00 0.00 91 1034.4
20210917142045 37 245 0.0 4.0 0.00 0.00 0.00 91 1034.4
20210917141537 37 233 2.0 4.0 0.00 0.00 0.00 91 1034.4
20210917141025 37 245 3.0 4.0 0.00 0.00 0.00 91 1034.4
20210917140601 36 245 3.0 4.0 0.00 0.00 0.00 91 1034.4
20210917140042 36 233 0.0 4.0 0.00 0.00 0.00 91 1034.4
20210917135555 36 229 0.0 6.0 0.00 0.00 0.00 91 1034.4
20210917135033 36 73 4.0 6.0 0.00 0.00 0.00 91 1034.4
20210917134521 36 71 4.0 6.0 0.00 0.00 0.00 91 1034.3
20210917134011 36 86 3.0 6.0 0.00 0.00 0.00 91 1034.3
20210917133555 36 80 2.0 6.0 0.00 0.00 0.00 91 1034.3
20210917133050 36 81 4.0 6.0 0.00 0.00 0.00 91 1034.2
20210917132545 36 51 1.0 6.0 0.00 0.00 0.00 91 1034.0
20210917132030 36 96 3.0 6.0 0.00 0.00 0.00 91 1034.1
20210917131557 36 71 4.0 6.0 0.00 0.00 0.00 90 1034.0
20210917131035 36 84 2.0 4.0 0.00 0.00 0.00 90 1033.9
20210917130602 36 98 1.0 4.0 0.00 0.00 0.00 91 1034.0
20210917130043 36 208 0.0 1.0 0.00 0.00 0.00 90 1033.8
20210917125602 36 232 0.0 1.0 0.00 0.00 0.00 90 1033.9
20210917125051 36 240 0.0 2.0 0.00 0.00 0.00 90 1033.8
20210917124547 36 238 0.0 2.0 0.00 0.00 0.00 90 1033.7
20210917124040 36 241 0.0 0.0 0.00 0.00 0.00 89 1033.6
20210917123527 36 241 0.0 1.0 0.00 0.00 0.00 89 1033.5
20210917123056 36 241 0.0 1.0 0.00 0.00 0.00 89 1033.4
20210917122551 36 259 0.0 2.0 0.00 0.00 0.00 89 1033.4
20210917122022 37 170 0.0 1.0 0.00 0.00 0.00 88 1033.3
20210917121556 37 228 0.0 0.0 0.00 0.00 0.00 88 1033.2
20210917121044 37 228 0.0 1.0 0.00 0.00 0.00 87 1033.2
20210917120521 37 120 0.0 1.0 0.00 0.00 0.00 87 1033.2
20210917120058 38 96 0.0 2.0 0.00 0.00 0.00 87 1033.2
20210917115542 38 114 0.0 3.0 0.00 0.00 0.00 86 1033.1
20210917115029 39 96 1.0 3.0 0.00 0.00 0.00 86 1033.0
20210917114604 39 107 0.0 2.0 0.00 0.00 0.00 85 1033.1
20210917114033 40 153 1.0 2.0 0.00 0.00 0.00 85 1033.0
20210917113520 40 237 0.0 3.0 0.00 0.00 0.00 84 1033.0
20210917113015 41 100 1.0 3.0 0.00 0.00 0.00 83 1033.0
20210917112610 42 86 0.0 5.0 0.00 0.00 0.00 82 1032.9
20210917112059 42 86 1.0 5.0 0.00 0.00 0.00 81 1032.9
20210917111555 43 231 0.0 3.0 0.00 0.00 0.00 82 1032.8
20210917111041 43 226 1.0 2.0 0.00 0.00 0.00 81 1032.6
20210917110535 43 231 0.0 2.0 0.00 0.00 0.00 82 1032.6
20210917110025 43 236 0.0 2.0 0.00 0.00 0.00 82 1032.5
20210917105543 43 229 0.0 2.0 0.00 0.00 0.00 81 1032.6
20210917105038 43 225 1.0 2.0 0.00 0.00 0.00 81 1032.5
20210917104050 43 141 0.0 1.0 0.00 0.00 0.00 80 1032.4
20210917103545 44 141 1.0 1.0 0.00 0.00 0.00 80 1032.3
20210917103034 44 240 0.0 2.0 0.00 0.00 0.00 79 1032.3
20210917102606 44 240 1.0 3.0 0.00 0.00 0.00 79 1032.1
20210917102054 44 259 0.0 5.0 0.00 0.00 0.00 79 1032.2
20210917101533 45 236 3.0 4.0 0.00 0.00 0.00 78 1032.2
20210917101022 45 236 1.0 4.0 0.00 0.00 0.00 78 1032.3
20210917100517 45 230 2.0 3.0 0.00 0.00 0.00 77 1032.3
20210917100055 45 231 2.0 3.0 0.00 0.00 0.00 75 1032.2
20210917095537 45 232 1.0 3.0 0.00 0.00 0.00 75 1032.1
20210917095032 46 230 0.0 3.0 0.00 0.00 0.00 74 1032.0
20210917094519 46 236 0.0 3.0 0.00 0.00 0.00 74 1032.0
20210917093533 46 231 2.0 4.0 0.00 0.00 0.00 74 1031.8
20210917093021 46 236 0.0 3.0 0.00 0.00 0.00 70 1031.8
20210917092516 46 241 2.0 3.0 0.00 0.00 0.00 70 1031.8
20210917092110 47 237 1.0 3.0 0.00 0.00 0.00 69 1031.6
20210917091556 48 255 0.0 4.0 0.00 0.00 0.00 69 1031.5
20210917091052 48 245 2.0 3.0 0.00 0.00 0.00 68 1031.5
20210917090530 48 232 1.0 2.0 0.00 0.00 0.00 66 1031.3
20210917090055 49 124 0.0 5.0 0.00 0.00 0.00 65 1031.4
20210917085514 49 79 1.0 5.0 0.00 0.00 0.00 62 1031.2
20210917084559 49 159 0.0 8.0 0.00 0.00 0.00 59 1031.2
20210917084055 50 227 0.0 4.0 0.00 0.00 0.00 58 1031.0
20210917083540 50 257 2.0 4.0 0.00 0.00 0.00 58 1030.9
20210917083034 50 251 2.0 4.0 0.00 0.00 0.00 58 1030.8
20210917082558 50 231 3.0 4.0 0.00 0.00 0.00 57 1030.8
20210917082047 51 235 2.0 4.0 0.00 0.00 0.00 56 1030.7
20210917081520 51 229 3.0 4.0 0.00 0.00 0.00 56 1030.6
20210917081048 51 227 1.0 2.0 0.00 0.00 0.00 52 1030.5
20210917080539 52 230 0.0 5.0 0.00 0.00 0.00 52 1030.4
20210917080033 53 226 1.0 6.0 0.00 0.00 0.00 52 1030.4
20210917075522 53 228 2.0 4.0 0.00 0.00 0.00 48 1030.3
20210917075022 54 64 1.0 4.0 0.00 0.00 0.00 46 1030.0
20210917074530 54 240 3.0 5.0 0.00 0.00 0.00 44 1029.8
20210917074012 55 152 3.0 8.0 0.00 0.00 0.00 42 1029.8
20210917073512 55 247 1.0 8.0 0.00 0.00 0.00 39 1029.7
20210917073019 55 98 2.0 5.0 0.00 0.00 0.00 35 1029.6
20210917072519 55 231 2.0 4.0 0.00 0.00 0.00 33 1029.3
20210917072045 54 264 1.0 3.0 0.00 0.00 0.00 33 1029.1
20210917071530 54 257 1.0 3.0 0.00 0.00 0.00 34 1028.9
20210917071020 54 230 1.0 3.0 0.00 0.00 0.00 34 1028.9
20210917070513 54 240 0.0 1.0 0.00 0.00 0.00 34 1028.5
20210917070029 54 263 0.0 1.0 0.00 0.00 0.00 34 1028.3
20210917065539 55 253 0.0 2.0 0.00 0.00 0.00 34 1028.2
20210917065013 55 246 1.0 2.0 0.00 0.00 0.00 33 1028.0
20210917064514 54 255 1.0 2.0 0.00 0.00 0.00 34 1027.9
20210917064022 54 248 1.0 2.0 0.00 0.00 0.00 35 1027.8
20210917063524 55 264 0.0 2.0 0.00 0.00 0.00 34 1027.7
20210917063024 55 245 0.0 1.0 0.00 0.00 0.00 34 1027.5
20210917062532 55 47 0.0 1.0 0.00 0.00 0.00 33 1027.5
20210917062013 56 54 0.0 0.0 0.00 0.00 0.00 32 1027.3
20210917061514 57 76 0.0 0.0 0.00 0.00 0.00 32 1027.2
20210917061020 57 76 0.0 0.0 0.00 0.00 0.00 31 1027.1
20210917060523 59 76 0.0 2.0 0.00 0.00 0.00 30 1027.0
20210917060039 61 76 0.0 2.0 0.00 0.00 0.00 28 1027.0
20210917055554 63 265 0.0 3.0 0.00 0.00 0.00 24 1026.8
20210917055050 63 258 1.0 3.0 0.00 0.00 0.00 23 1026.7
20210917054517 63 242 1.0 6.0 0.00 0.00 0.00 24 1026.7
20210917054014 63 242 3.0 8.0 0.00 0.00 0.00 24 1026.7
20210917053606 63 243 2.0 8.0 0.00 0.00 0.00 25 1026.6
20210917053052 63 258 2.0 4.0 0.00 0.00 0.00 25 1026.5
20210917052524 63 256 1.0 4.0 0.00 0.00 0.00 25 1026.6
20210917052059 63 252 1.0 4.0 0.00 0.00 0.00 25 1026.5
20210917051545 63 275 1.0 6.0 0.00 0.00 0.00 25 1026.5
20210917051037 63 239 2.0 6.0 0.00 0.00 0.00 26 1026.4
20210917050523 63 262 2.0 6.0 0.00 0.00 0.00 26 1026.4
20210917050108 63 243 2.0 4.0 0.00 0.00 0.00 26 1026.4
20210917045539 63 240 0.0 4.0 0.00 0.00 0.00 26 1026.3
20210917045017 63 239 1.0 3.0 0.00 0.00 0.00 27 1026.2
20210917044557 63 239 0.0 4.0 0.00 0.00 0.00 27 1026.2
20210917044035 63 258 1.0 4.0 0.00 0.00 0.00 27 1026.2
20210917043523 64 260 1.0 5.0 0.00 0.00 0.00 26 1026.2
20210917043017 64 263 1.0 3.0 0.00 0.00 0.00 26 1026.1
20210917042602 64 249 0.0 7.0 0.00 0.00 0.00 26 1026.1
20210917042054 64 257 1.0 7.0 0.00 0.00 0.00 26 1026.0
20210917041601 64 26 1.0 4.0 0.00 0.00 0.00 26 1026.0
20210917040606 64 212 2.0 5.0 0.00 0.00 0.00 26 1026.0
20210917040047 64 240 1.0 8.0 0.00 0.00 0.00 26 1026.0
20210917035531 64 236 1.0 8.0 0.00 0.00 0.00 26 1026.0
20210917035019 64 252 1.0 6.0 0.00 0.00 0.00 26 1025.9
20210917034513 64 239 0.0 7.0 0.00 0.00 0.00 26 1025.9
20210917034108 64 272 1.0 4.0 0.00 0.00 0.00 26 1025.9
20210917033557 64 12 0.0 4.0 0.00 0.00 0.00 26 1025.8
20210917033051 64 271 1.0 3.0 0.00 0.00 0.00 26 1025.8
20210917032537 64 221 1.0 3.0 0.00 0.00 0.00 26 1025.8
20210917032014 64 242 2.0 3.0 0.00 0.00 0.00 26 1025.7
20210917031540 65 254 0.0 4.0 0.00 0.00 0.00 25 1025.7
20210917031035 65 257 1.0 5.0 0.00 0.00 0.00 25 1025.6
20210917030602 65 252 1.0 5.0 0.00 0.00 0.00 25 1025.6
20210917030040 65 224 2.0 5.0 0.00 0.00 0.00 25 1025.6
20210917025602 65 243 1.0 4.0 0.00 0.00 0.00 25 1025.5
20210917025051 65 238 1.0 5.0 0.00 0.00 0.00 25 1025.4
20210917024545 65 233 1.0 5.0 0.00 0.00 0.00 25 1025.3
20210917024018 65 233 0.0 2.0 0.00 0.00 0.00 24 1025.3
20210917023541 65 248 0.0 5.0 0.00 0.00 0.00 24 1025.2
20210917023034 66 257 1.0 4.0 0.00 0.00 0.00 23 1025.0
20210917022602 66 252 2.0 4.0 0.00 0.00 0.00 23 1025.0
20210917022057 66 245 2.0 3.0 0.00 0.00 0.00 23 1024.8
20210917021542 66 255 0.0 3.0 0.00 0.00 0.00 23 1024.7
20210917021037 66 254 0.0 3.0 0.00 0.00 0.00 23 1024.6
20210917020529 66 234 0.0 3.0 0.00 0.00 0.00 22 1024.6
20210917020108 66 259 0.0 2.0 0.00 0.00 0.00 22 1024.5
20210917015537 67 270 1.0 2.0 0.00 0.00 0.00 22 1024.4
20210917015104 67 250 0.0 1.0 0.00 0.00 0.00 22 1024.4
20210917014548 68 236 0.0 7.0 0.00 0.00 0.00 21 1024.4
20210917014043 68 231 3.0 7.0 0.00 0.00 0.00 21 1024.2
20210917013538 67 236 0.0 5.0 0.00 0.00 0.00 21 1024.1
20210917013026 68 281 0.0 2.0 0.00 0.00 0.00 21 1024.1
20210917012521 68 238 0.0 4.0 0.00 0.00 0.00 20 1024.0
20210917012106 69 249 1.0 4.0 0.00 0.00 0.00 20 1023.9
20210917011601 68 247 1.0 3.0 0.00 0.00 0.00 20 1023.9
20210917011034 69 259 1.0 5.0 0.00 0.00 0.00 21 1023.8
20210917010526 69 247 2.0 5.0 0.00 0.00 0.00 20 1023.8
20210917005558 69 247 1.0 4.0 0.00 0.00 0.00 21 1023.7
20210917005051 69 248 0.0 3.0 0.00 0.00 0.00 22 1023.7
20210917004534 69 267 1.0 3.0 0.00 0.00 0.00 22 1023.7
20210917004103 69 240 0.0 2.0 0.00 0.00 0.00 21 1023.6
20210917003557 70 254 0.0 5.0 0.00 0.00 0.00 21 1023.6
20210917003031 69 266 3.0 5.0 0.00 0.00 0.00 22 1023.6
20210917002605 69 31 0.0 1.0 0.00 0.00 0.00 23 1023.5
20210917002052 70 254 0.0 2.0 0.00 0.00 0.00 24 1023.5
20210917001548 70 243 1.0 2.0 0.00 0.00 0.00 24 1023.5
20210917001035 71 236 0.0 1.0 0.00 0.00 0.00 23 1023.4
20210917000528 71 260 0.0 1.0 0.00 0.00 0.00 23 1023.4
20210916235557 72 246 0.0 1.0 0.00 0.00 0.00 21 1023.2
20210916235029 73 94 0.0 1.0 0.00 0.00 0.00 22 1023.1
20210916234603 73 94 0.0 4.0 0.00 0.00 0.00 21 1023.1
20210916234052 73 46 0.0 7.0 0.00 0.00 0.00 20 1023.0
20210916233547 73 56 5.0 7.0 0.00 0.00 0.00 20 1023.0
20210916233035 74 14 1.0 5.0 0.00 0.00 0.00 20 1023.0
20210916232530 74 33 3.0 5.0 0.00 0.00 0.00 20 1022.8
20210916232101 74 79 1.0 5.0 0.00 0.00 0.00 19 1022.7
20210916231555 75 56 0.0 8.0 0.00 0.00 0.00 20 1022.7
20210916231024 73 63 2.0 8.0 0.00 0.00 0.00 20 1022.7
20210916230519 73 58 4.0 11.0 0.00 0.00 0.00 20 1022.7
20210916230056 73 86 6.0 12.0 0.00 0.00 0.00 20 1022.6
20210916225539 73 51 6.0 10.0 0.00 0.00 0.00 20 1022.5
20210916225033 74 51 4.0 10.0 0.00 0.00 0.00 20 1022.4
20210916224602 74 91 5.0 9.0 0.00 0.00 0.00 20 1022.4
20210916224053 74 54 0.0 6.0 0.00 0.00 0.00 20 1022.4
20210916223517 73 44 3.0 6.0 0.00 0.00 0.00 19 1022.4
20210916223058 73 70 1.0 11.0 0.00 0.00 0.00 21 1022.3
20210916222536 73 44 6.0 11.0 0.00 0.00 0.00 20 1022.2
20210916222101 74 27 1.0 6.0 0.00 0.00 0.00 21 1022.4
20210916221543 74 29 0.0 5.0 0.00 0.00 0.00 22 1022.4
20210916221034 74 37 1.0 5.0 0.00 0.00 0.00 20 1022.4
20210916220527 74 10 0.0 6.0 0.00 0.00 0.00 20 1022.4
20210916220106 74 248 1.0 4.0 0.00 0.00 0.00 20 1022.5
20210916215546 75 245 0.0 3.0 0.00 0.00 0.00 19 1022.4
20210916215032 75 30 0.0 3.0 0.00 0.00 0.00 20 1022.4
20210916214602 74 33 0.0 6.0 0.00 0.00 0.00 20 1022.5
20210916214027 73 84 3.0 6.0 0.00 0.00 0.00 20 1022.5
20210916213534 74 77 2.0 3.0 0.00 0.00 0.00 19 1022.5
20210916213055 74 20 1.0 4.0 0.00 0.00 0.00 21 1022.6
20210916212545 74 88 2.0 4.0 0.00 0.00 0.00 19 1022.6
20210916212033 74 74 0.0 10.0 0.00 0.00 0.00 19 1022.5
20210916211605 74 26 1.0 10.0 0.00 0.00 0.00 19 1022.7
20210916211052 74 318 2.0 5.0 0.00 0.00 0.00 19 1022.6
20210916210547 74 239 0.0 6.0 0.00 0.00 0.00 19 1022.4
20210916210103 74 280 2.0 6.0 0.00 0.00 0.00 18 1022.6
20210916205549 74 299 0.0 7.0 0.00 0.00 0.00 19 1022.6
20210916205019 74 23 2.0 9.0 0.00 0.00 0.00 19 1022.6
20210916204547 75 18 5.0 9.0 0.00 0.00 0.00 18 1022.6
20210916204038 75 322 2.0 8.0 0.00 0.00 0.00 18 1022.7
20210916203606 75 351 5.0 8.0 0.00 0.00 0.00 18 1022.7
20210916203057 76 147 0.0 7.0 0.00 0.00 0.00 17 1022.5
20210916202546 76 110 2.0 9.0 0.00 0.00 0.00 17 1022.5
20210916202040 76 6 4.0 9.0 0.00 0.00 0.00 17 1022.6
20210916201512 77 41 1.0 9.0 0.00 0.00 0.00 18 1022.6
20210916201058 76 60 4.0 13.0 0.00 0.00 0.00 18 1022.6
20210916200528 77 41 7.0 14.0 0.00 0.00 0.00 17 1022.6
20210916195558 77 65 9.0 14.0 0.00 0.00 0.00 17 1022.7
20210916195054 78 75 3.0 8.0 0.00 0.00 0.00 16 1022.8
20210916194542 77 20 2.0 11.0 0.00 0.00 0.00 17 1022.7
20210916194037 77 46 4.0 9.0 0.00 0.00 0.00 17 1022.9
20210916193530 77 42 3.0 8.0 0.00 0.00 0.00 17 1022.9
20210916193017 77 120 3.0 8.0 0.00 0.00 0.00 17 1022.8
20210916192554 77 255 0.0 5.0 0.00 0.00 0.00 17 1023.0
20210916192043 77 224 3.0 9.0 0.00 0.00 0.00 16 1023.0
20210916191538 77 32 4.0 9.0 0.00 0.00 0.00 17 1023.0
20210916191105 76 75 1.0 8.0 0.00 0.00 0.00 17 1023.2
20210916190559 76 34 4.0 8.0 0.00 0.00 0.00 17 1023.2
20210916190038 76 61 1.0 6.0 0.00 0.00 0.00 18 1023.3
20210916185556 77 326 1.0 6.0 0.00 0.00 0.00 17 1023.4
20210916185034 77 246 0.0 5.0 0.00 0.00 0.00 18 1023.4
20210916184601 79 40 1.0 8.0 0.00 0.00 0.00 16 1023.4
20210916184040 80 48 4.0 8.0 0.00 0.00 0.00 16 1023.4
20210916183604 79 57 1.0 6.0 0.00 0.00 0.00 17 1023.4
20210916183051 78 254 2.0 12.0 0.00 0.00 0.00 17 1023.4
20210916182547 77 6 4.0 12.0 0.00 0.00 0.00 17 1023.4
20210916182041 78 275 0.0 7.0 0.00 0.00 0.00 17 1023.5
20210916181527 78 264 1.0 9.0 0.00 0.00 0.00 17 1023.5
20210916180558 76 38 5.0 12.0 0.00 0.00 0.00 17 1023.6
20210916180047 75 36 2.0 13.0 0.00 0.00 0.00 18 1023.9
20210916175606 76 13 6.0 13.0 0.00 0.00 0.00 17 1023.9
20210916175059 78 351 1.0 8.0 0.00 0.00 0.00 17 1024.0
20210916174547 77 246 2.0 10.0 0.00 0.00 0.00 18 1023.9
20210916174041 78 86 3.0 10.0 0.00 0.00 0.00 17 1023.9
20210916173604 78 239 3.0 8.0 0.00 0.00 0.00 17 1024.1
20210916173031 77 71 2.0 11.0 0.00 0.00 0.00 18 1024.3
20210916172605 77 230 4.0 11.0 0.00 0.00 0.00 18 1024.0
20210916172053 77 82 1.0 7.0 0.00 0.00 0.00 18 1024.2
20210916171524 76 7 2.0 9.0 0.00 0.00 0.00 19 1024.3
20210916171016 74 234 4.0 9.0 0.00 0.00 0.00 18 1024.3